Location: ?
(35.4554°N, 139.3092°E)
Time: 22:15:20
(UTC+00:00)

Cosmos 1400 Rocket - Pass Details

Date: 21 April 2021
Orbit: 521 x 566 km, 81.2° (Epoch: 10 May)

Event Time Altitude Azimuth Distance (km) Brightness Sun altitude
Rises 18:55:56 0° 349° (N) 2,765 6.6 -13.4°
Reaches altitude 10° 18:58:07 10° 347° (NNW) 1,867 5.7 -13.0°
Maximum altitude 19:02:14 73° 263° (W) 594 2.8 -12.2°
Drops below altitude 10° 19:06:19 10° 179° (S) 1,853 5.3 -11.5°
Sets 19:08:29 0° 177° (S) 2,743 6.2 -11.1°
